Location: Teplice
(50.6330°N, 13.8330°E)
Time: 00:43:30
(UTC+02:00)

ISS - Visible Passes

Search period start: 26 September 2023 00:00
Search period end: 06 October 2023 00:00
Orbit: 413 x 422 km, 51.6° (Epoch: 25 September)

Date Brightness Start Highest point End Pass type
(mag) Time Alt. Az. Time Alt. Az. Time Alt. Az.
26 Sep -3.8 20:04:30 10° WNW 20:07:51 88° N 20:09:49 23° ESE visible
26 Sep -1.3 21:41:26 10° W 21:42:44 19° W 21:42:44 19° W visible
27 Sep -3.1 20:53:11 10° W 20:56:23 43° SSW 20:56:26 43° SSW visible
28 Sep -3.5 20:04:59 10° WNW 20:08:17 59° SSW 20:10:09 23° SE visible
28 Sep -0.8 21:42:31 10° WSW 21:43:04 12° WSW 21:43:04 12° WSW visible
29 Sep -3.7 19:16:46 10° WNW 19:20:07 77° SSW 19:23:27 10° ESE visible
29 Sep -1.9 20:53:52 10° W 20:56:31 22° SW 20:56:49 22° SSW visible
30 Sep -2.3 20:05:25 10° W 20:08:26 31° SSW 20:10:35 16° SSE visible
01 Oct -2.8 19:17:03 10° W 19:20:15 44° SSW 19:23:27 10° SE visible
01 Oct -0.9 20:55:42 10° SW 20:56:20 10° SW 20:56:59 10° SSW visible
02 Oct -1.1 20:06:08 10° W 20:08:15 16° SW 20:10:22 10° S visible
03 Oct -1.6 19:17:22 10° W 19:20:05 23° SW 19:22:47 10° SSE visible
05 Oct -0.6 19:18:34 10° WSW 19:19:34 11° SW 19:20:34 10° SSW visible
